sat.trackr.live / text

‹ back to catalog

OUTPOST MISSION 1

NORAD 56226 · 2023-084BK

PAYLOAD ACTIVE UNKNOWN

§ Identity

Operator
Country
US
Launch date
2023-06-12
Launch site
AFWTR
Launch vehicle
Mass (kg)
RCS (m²)

External: N2YO · Heavens-Above · Gunter

§ Orbital elements

Epoch: 2026-05-24T22:47:44.595744Z

Period
90.57 min
Inclination
97.6008°
Eccentricity
0.0004193
Mean motion
15.89914763 rev/d
Perigee alt
299.7 km
Apogee alt
305.3 km
Semi-major
6,680.7 km
B*
6.7837e-4
RAAN
305.8151°
Arg perigee
260.5481°
Mean anomaly
99.5318°
Rev number
16,531

§ Raw data

OUTPOST MISSION 11 56226U 23084BK  26144.94982171  .00200296  16746-4  67837-3 0  99972 56226  97.6008 305.8151 0004193 260.5481  99.5318 15.89914763165313

JSON: /api/v1/satellites/56226 · /tle

For live sub-satellite position, see the globe view (requires WebGL).

§ Visibility from observer

Set your observer location to see the next 7 days of passes ≥ 10°. The values pass through the URL so the page stays shareable.

No JS? Fill the form by hand. The geolocation button needs JavaScript.